Location: Vancouver
(49.2500°N, 123.1330°W)
Time: 11:08:09
(UTC-08:00)

SO-67 - Visible Passes

Search period start: 11 February 2016 00:00
Search period end: 21 February 2016 00:00
Orbit: 424 x 429 km, 97.1° (Epoch: 11 February)

Date Brightness Start Highest point End Pass type
(mag) Time Alt. Az. Time Alt. Az. Time Alt. Az.
11 Feb ? 06:49:30 10° NNE 06:52:37 40° E 06:55:42 10° S visible
11 Feb ? 18:53:54 10° SSW 18:56:37 24° W 18:59:21 10° NW visible
12 Feb ? 06:08:40 10° ENE 06:10:18 13° E 06:11:55 10° ESE visible
12 Feb ? 18:11:10 10° SSE 18:14:26 85° WSW 18:17:43 10° NNW visible
13 Feb ? 19:02:22 10° SW 19:04:49 19° W 19:07:16 10° NW visible
14 Feb ? 06:16:22 10° NE 06:18:30 16° E 06:20:37 10° SE visible
14 Feb ? 18:19:18 10° S 18:22:32 66° WSW 18:25:48 10° NNW visible
15 Feb ? 19:10:50 10° SW 19:12:56 16° W 19:15:02 10° NW visible
16 Feb ? 06:24:07 10° NE 06:26:36 20° E 06:29:04 10° SE visible
16 Feb ? 18:27:23 10° S 18:30:34 50° W 18:33:45 10° NNW visible
17 Feb ? 19:19:22 10° WSW 19:20:58 13° W 19:22:34 10° WNW visible
18 Feb ? 06:31:50 10° NE 06:34:35 24° E 06:37:18 10° SSE visible
18 Feb ? 18:35:25 10° S 18:38:29 39° W 18:41:36 10° NNW visible
19 Feb ? 19:28:14 10° W 19:28:55 10° W 19:29:35 10° WNW visible
20 Feb ? 06:39:31 10° NNE 06:42:28 30° E 06:45:23 10° SSE visible
20 Feb ? 18:43:23 10° SSW 18:46:20 31° W 18:49:19 10° NNW visible
